Regional Weather Roundup
Issued by NWS Kansas City/Pleasant Hill, MO

Home | Current Version | Previous Version | Graphics & Text | Print | Product List | Glossary Off
Versions: 1 2 3 4 5 6 7 8 9 10 11 12 13 14 15 16 17 18 19 20 21 22 23 24 25 26 27 28 29 30 31 32 33 34 35 36 37 38 39 40 41 42 43 44 45 46 47 48 49 50

000
ASUS43 KEAX 062110
RWREAX

WEATHER ROUNDUP FOR EASTERN KANSAS AND NORTHWEST MISSOURI
NATIONAL WEATHER SERVICE KANSAS CITY/PLEASANT HILL MO
300 PM CST TUE DEC 06 2016

KSZ040-057-103>105-MOZ028-029-037-043-062200-
...KANSAS CITY METROPOLITAN AREA...

CITY           SKY/WX    TMP DP  RH WIND       PRES   REMARKS
K.C. INTL      MOSUNNY   37  13  37 NW8       30.04S WCI  31
K.C. DOWNTOWN  SUNNY     39  13  34 NW10      30.05S WCI  32
LEES SUMMIT    SUNNY     37  13  37 NW9       30.04S WCI  30
OLATHE - IXD   SUNNY     37  14  38 NW8       30.05F WCI  31
OLATHE - OJC   SUNNY     36  12  37 NW12      30.04F WCI  28
LAWRENCE       SUNNY     39  14  36 NW10      30.06F WCI  32

$$

MOZ001>008-011>017-020>025-030>033-038>040-044>046-053-054-062200-
...NORTHERN AND CENTRAL MISSOURI...

CITY           SKY/WX    TMP DP  RH WIND       PRES   REMARKS
ST. JOSEPH     SUNNY     36  13  38 NW20      30.04F WCI  25
MOSBY          CLEAR     36  14  41 NW8       30.05S WCI  29
WARRENSBURG    MOSUNNY   37  14  38 W12G20    30.04S WCI  30
WHITEMAN AFB   NOT AVBL
CLINTON        CLOUDY    39  18  41 NW9       30.05R WCI  33
SEDALIA        PTSUNNY   39  19  44 NW9       30.04R WCI  33
WARSAW         NOT AVBL
CHILLICOTHE      N/A     37  16  42 NW10G18   30.03R WCI  30
KIRKSVILLE     SUNNY     37  20  50 W13       29.98R WCI  29

$$

MOZ041-047>049-056>058-063>065-088>090-097-062200-
...EASTERN AND SOUTHERN MISSOURI...

CITY           SKY/WX    TMP DP  RH WIND       PRES   REMARKS
ST. LOUIS INTL PTSUNNY   42  34  73 NW10      29.97R
SPIRIT OF STL  PTSUNNY   42  35  76 W13       29.98R
COLUMBIA       MOSUNNY   39  22  50 NW13      30.01R WCI  31
JEFFERSON CITY CLOUDY    40  23  50 NW10      30.02R WCI  33
ROLLA          CLOUDY    39  28  64 NW13      29.98R WCI  31
OSAGE BEACH    CLOUDY    40  22  48 VRB6      30.03R
SPRINGFIELD    MOSUNNY   41  25  53 N14       30.00S WCI  33
BRANSON        PTSUNNY   41  32  70 NW6       30.00S
JOPLIN         MOSUNNY   41  22  46 N12       30.05S WCI  34
WEST PLAINS    CLOUDY    40  34  79 NW10      29.99R WCI  33

$$

IAZ060-094-KSZ022-034>040-054-083-096-NEZ052-066-093-062200-
...KANSAS...SOUTHEAST NEBRASKA AND IOWA...

CITY           SKY/WX    TMP DP  RH WIND       PRES   REMARKS
TOPEKA         SUNNY     39  12  33 NW6       30.06F WCI  35
MANHATTAN      SUNNY     41  13  31 VRB7      30.06S
EMPORIA        SUNNY     39  11  31 N9        30.06R WCI  33
CHANUTE        SUNNY     42  15  33 N10G17    30.06S
WICHITA        MOSUNNY   39  14  36 N10       30.06F WCI  32
OMAHA          SUNNY     34   9  35 W23G29    29.99R WCI  22
LINCOLN        SUNNY     36   8  31 NW18      30.03S WCI  26
FALLS CITY     SUNNY     38  11  32 NW15      30.02F WCI  29
LAMONI         SUNNY     34  17  50 W15       29.98R WCI  24
DES MOINES     MOSUNNY   34  15  46 W22       29.94R WCI  22

$$




USA.gov is the U.S. government's official web portal to all federal, state and local government web resources and services.